EW0401 Weather Reports


time (UTC)temp
F
wind
direction
speed
knots
gust
knots
rain 1hr
in
rain 24hr
in
rain mn
in
humidity
%
barometer
mb
20240614131103 79 83 0.0 0.0 0.00 0.00 0.00 91 1014.8
20240614130603 78 83 0.0 0.9 0.00 0.00 0.00 92 1014.7
20240614130103 78 83 0.0 1.7 0.00 0.00 0.00 93 1014.7
20240614125603 78 83 0.0 0.9 0.00 0.00 0.00 93 1014.7
20240614125104 77 83 0.0 1.7 0.00 0.00 0.00 93 1014.7
20240614124603 77 193 0.0 0.0 0.00 0.00 0.00 94 1014.7
20240614124104 77 193 0.0 0.0 0.00 0.00 0.00 94 1014.7
20240614123603 77 193 0.0 0.0 0.00 0.00 0.00 94 1014.7
20240614123103 77 193 0.0 0.0 0.00 0.00 0.00 94 1014.6
20240614122603 76 193 0.0 0.0 0.00 0.00 0.00 95 1014.5
20240614122104 76 193 0.0 0.0 0.00 0.00 0.00 94 1014.4
20240614121603 76 193 0.0 0.0 0.00 0.00 0.00 94 1014.4
20240614121103 76 193 0.0 0.0 0.00 0.00 0.00 94 1014.4
20240614120603 76 193 0.0 0.0 0.00 0.00 0.00 94 1014.3
20240614120103 76 193 0.0 0.0 0.00 0.00 0.00 94 1014.0
20240614115103 76 193 0.0 0.0 0.00 0.00 0.00 93 1014.2
20240614114603 76 193 0.0 0.0 0.00 0.00 0.00 93 1014.1
20240614114103 76 193 0.0 0.0 0.00 0.00 0.00 94 1014.0
20240614113604 76 193 0.0 0.0 0.00 0.00 0.00 94 1013.9
20240614113103 76 193 0.0 1.7 0.00 0.00 0.00 94 1013.9
20240614112541 75 193 0.0 1.7 0.00 0.00 0.00 94 1014.0
20240614112050 75 193 0.0 0.0 0.00 0.00 0.00 94 1014.0
20240614111604 75 193 0.0 0.0 0.00 0.00 0.00 93 1013.9
20240614111531 75 193 0.0 0.0 0.00 0.00 0.00 93 1014.0
20240614111041 75 193 0.0 0.0 0.00 0.00 0.00 93 1013.9
20240614110550 75 193 0.0 0.0 0.00 0.00 0.00 93 1013.8
20240614110116 75 193 0.0 0.0 0.00 0.00 0.00 93 1013.9
20240614105759 75 193 0.0 0.0 0.00 0.00 0.00 93 1013.5
20240614105230 86 135 0.0 3.5 0.00 0.00 0.00 76 1014.2
20240614104103 75 193 0.0 0.0 0.00 0.00 0.00 93 1013.5
20240614103603 75 193 0.0 0.0 0.00 0.00 0.00 93 1013.4
20240614103103 75 193 0.0 0.0 0.00 0.00 0.00 92 1013.4
20240614102603 75 193 0.0 0.0 0.00 0.00 0.00 92 1013.4
20240614102103 75 193 0.0 0.0 0.00 0.00 0.00 92 1013.3
20240614101604 75 193 0.0 0.0 0.00 0.00 0.00 92 1013.3
20240614101103 75 193 0.0 0.0 0.00 0.00 0.00 92 1013.3
20240614100603 75 193 0.0 0.0 0.00 0.00 0.00 92 1013.4
20240614100104 75 193 0.0 0.0 0.00 0.00 0.00 92 1013.4
20240614095604 75 193 0.0 0.0 0.00 0.00 0.00 92 1013.4
20240614094603 76 193 0.0 0.0 0.00 0.00 0.00 92 1013.3
20240614093604 76 193 0.0 0.0 0.00 0.00 0.00 92 1013.3
20240614092604 76 193 0.0 0.0 0.00 0.00 0.00 92 1013.3
20240614092103 76 193 0.0 0.0 0.00 0.00 0.00 92 1013.2
20240614091603 76 193 0.0 0.0 0.00 0.00 0.00 92 1013.1
20240614090604 76 193 0.0 0.0 0.00 0.00 0.00 92 1013.1
20240614090104 76 193 0.0 0.0 0.00 0.00 0.00 92 1013.1
20240614085603 76 193 0.0 0.0 0.00 0.00 0.00 92 1013.0
20240614085103 76 193 0.0 0.0 0.00 0.00 0.00 92 1013.0
20240614084603 76 193 0.0 0.0 0.00 0.00 0.00 92 1013.0
20240614083104 76 193 0.0 0.0 0.00 0.00 0.00 92 1013.1
20240614082604 76 193 0.0 0.0 0.00 0.00 0.00 91 1013.1
20240614082104 76 193 0.0 0.0 0.00 0.00 0.00 91 1013.1
20240614081603 76 193 0.0 0.0 0.00 0.00 0.00 91 1013.1
20240614081103 76 193 0.0 0.0 0.00 0.00 0.00 91 1013.1
20240614080603 76 193 0.0 0.0 0.00 0.00 0.00 91 1013.0
20240614075603 76 193 0.0 0.0 0.00 0.00 0.00 91 1013.0
20240614075103 76 193 0.0 0.0 0.00 0.00 0.00 91 1013.1
20240614074603 76 193 0.0 0.0 0.00 0.00 0.00 91 1013.1
20240614074103 76 193 0.0 0.0 0.00 0.00 0.00 91 1013.1
20240614073603 76 193 0.0 0.0 0.00 0.00 0.00 90 1013.1
20240614073103 76 193 0.0 0.0 0.00 0.00 0.00 90 1013.2
20240614072603 76 193 0.0 0.0 0.00 0.00 0.00 90 1013.2
20240614072103 76 193 0.0 0.0 0.00 0.00 0.00 90 1013.2
20240614071603 77 193 0.0 0.0 0.00 0.00 0.00 90 1013.2
20240614071103 77 193 0.0 0.0 0.00 0.00 0.00 90 1013.2
20240614070603 77 193 0.0 0.0 0.00 0.00 0.00 90 1013.3
20240614070103 77 193 0.0 0.0 0.00 0.00 0.00 90 1013.2
20240614065604 77 193 0.0 0.0 0.00 0.00 0.00 90 1013.1
20240614065103 77 193 0.0 0.0 0.00 0.00 0.00 90 1013.1
20240614064603 77 193 0.0 0.0 0.00 0.00 0.00 90 1013.0
20240614064103 77 193 0.0 0.0 0.00 0.00 0.00 90 1013.0
20240614063603 77 193 0.0 0.0 0.00 0.00 0.00 90 1013.0
20240614063103 77 193 0.0 0.0 0.00 0.00 0.00 90 1012.9
20240614062603 77 193 0.0 0.0 0.00 0.00 0.00 90 1012.9
20240614061604 77 193 0.0 0.0 0.00 0.00 0.00 89 1012.9
20240614061104 77 193 0.0 0.0 0.00 0.00 0.00 89 1012.9
20240614060604 77 193 0.0 0.0 0.00 0.00 0.00 89 1012.9
20240614055603 78 193 0.0 0.0 0.00 0.00 0.00 89 1013.0
20240614054603 78 193 0.0 0.0 0.00 0.00 0.00 88 1013.0
20240614054103 78 193 0.0 0.0 0.00 0.00 0.00 88 1013.0
20240614053603 78 193 0.0 0.0 0.00 0.00 0.00 88 1013.1
20240614053103 78 193 0.0 0.0 0.00 0.00 0.00 88 1013.1
20240614052603 78 193 0.0 0.0 0.00 0.00 0.00 88 1013.2
20240614051104 79 193 0.0 0.0 0.00 0.00 0.00 87 1013.1
20240614050103 79 193 0.0 0.0 0.00 0.00 0.00 86 1013.1
20240614045603 79 193 0.0 0.0 0.00 0.00 0.00 86 1013.2
20240614044604 79 193 0.0 0.0 0.00 0.00 0.00 86 1013.1
20240614044104 80 193 0.0 0.0 0.00 0.00 0.00 85 1013.0
20240614043603 80 193 0.0 0.0 0.00 0.00 0.00 85 1013.0
20240614043103 80 193 0.0 0.0 0.00 0.00 0.00 85 1013.1
20240614042603 80 193 0.0 0.0 0.00 0.00 0.00 84 1013.1
20240614042103 80 193 0.0 0.0 0.00 0.00 0.00 84 1013.1
20240614041103 81 193 0.0 0.0 0.00 0.00 0.00 84 1013.1
20240614040604 81 193 0.0 0.0 0.00 0.00 0.00 83 1013.1
20240614040104 81 193 0.0 0.0 0.00 0.00 0.00 83 1013.1
20240614035103 81 193 0.0 0.0 0.00 0.00 0.00 82 1013.0
20240614034603 81 193 0.0 0.0 0.00 0.00 0.00 82 1013.0
20240614034103 82 193 0.0 0.0 0.00 0.00 0.00 81 1013.0
20240614033603 82 193 0.0 0.0 0.00 0.00 0.00 81 1013.0
20240614033103 82 193 0.0 0.0 0.00 0.00 0.00 81 1013.0
20240614032603 82 193 0.0 0.0 0.00 0.00 0.00 81 1012.9
20240614032103 82 193 0.0 0.0 0.00 0.00 0.00 81 1013.0
20240614031604 82 193 0.0 0.0 0.00 0.00 0.00 80 1012.8
20240614031104 82 193 0.0 0.0 0.00 0.00 0.00 80 1012.7
20240614030604 82 193 0.0 0.0 0.00 0.00 0.00 80 1012.7
20240614030103 83 193 0.0 0.0 0.00 0.00 0.00 80 1012.7
20240614025604 83 193 0.0 0.0 0.00 0.00 0.00 80 1012.6
20240614025104 83 193 0.0 0.0 0.00 0.00 0.00 80 1012.6
20240614024104 83 193 0.0 0.0 0.00 0.00 0.00 80 1012.6
20240614023604 83 193 0.0 0.0 0.00 0.00 0.00 79 1012.5
20240614023104 83 193 0.0 0.0 0.00 0.00 0.00 79 1012.6
20240614022603 83 193 0.0 0.0 0.00 0.00 0.00 79 1012.5
20240614022104 84 193 0.0 0.0 0.00 0.00 0.00 79 1012.5
20240614021603 84 193 0.0 0.0 0.00 0.00 0.00 79 1012.4
20240614021103 84 193 0.0 0.0 0.00 0.00 0.00 78 1012.4
20240614020603 84 193 0.0 0.0 0.00 0.00 0.00 78 1012.4
20240614020103 85 193 0.0 0.0 0.00 0.00 0.00 78 1012.4
20240614015604 85 193 0.0 0.0 0.00 0.00 0.00 77 1012.4
20240614015103 85 193 0.0 0.0 0.00 0.00 0.00 77 1012.4
20240614014603 85 193 0.0 0.0 0.00 0.00 0.00 77 1012.4
20240614014103 85 193 0.0 0.0 0.00 0.00 0.00 77 1012.5
20240614013603 85 193 0.0 0.0 0.00 0.00 0.00 77 1012.5
20240614013103 85 193 0.0 0.0 0.00 0.00 0.00 76 1012.5
20240614011603 86 193 0.0 0.0 0.00 0.00 0.00 75 1012.4
20240614011103 86 193 0.0 0.0 0.00 0.00 0.00 75 1012.4
20240614010603 86 193 0.0 1.7 0.00 0.00 0.00 74 1012.4
20240614010103 87 202 0.0 1.7 0.00 0.00 0.00 74 1012.4
20240614005603 87 202 0.0 0.0 0.00 0.00 0.00 74 1012.4
20240614005103 87 202 0.0 0.0 0.00 0.00 0.00 74 1012.3
20240614004603 87 202 0.0 0.0 0.00 0.00 0.00 74 1012.3
20240614004104 87 194 0.0 0.0 0.00 0.00 0.00 73 1012.3
20240614003604 87 194 0.0 1.7 0.00 0.00 0.00 73 1012.3
20240614003103 88 194 0.0 0.0 0.00 0.00 0.00 73 1012.3
20240614002604 88 194 0.0 1.7 0.00 0.00 0.00 73 1012.2
20240614002103 88 194 0.9 2.6 0.00 0.00 0.00 72 1012.2
20240614001103 88 170 0.9 2.6 0.00 0.00 0.00 73 1012.1
20240614000603 88 171 0.0 1.7 0.00 0.00 0.00 73 1012.1
20240614000104 89 171 0.0 0.9 0.00 0.00 0.00 72 1012.1
20240613235103 89 171 0.0 4.3 0.00 0.00 0.00 71 1012.0
20240613234603 89 194 0.9 1.7 0.00 0.00 0.00 71 1012.1
20240613233604 89 196 0.0 1.7 0.00 0.00 0.00 71 1012.1
20240613233103 89 194 0.0 1.7 0.00 0.00 0.00 71 1012.1
20240613232603 89 192 0.0 1.7 0.00 0.00 0.00 72 1012.1
20240613232104 89 195 0.0 1.7 0.00 0.00 0.00 72 1012.2
20240613231103 88 202 0.0 0.0 0.00 0.00 0.00 73 1012.2
20240613230103 89 160 0.0 1.7 0.00 0.00 0.00 72 1012.2
20240613225104 89 163 0.0 2.6 0.00 0.00 0.00 71 1012.2
20240613224603 89 205 0.0 1.7 0.00 0.00 0.00 71 1012.2
20240613224103 89 199 0.0 0.0 0.00 0.00 0.00 71 1012.3
20240613223603 89 199 0.0 0.9 0.00 0.00 0.00 71 1012.2
20240613223104 89 199 0.0 0.9 0.00 0.00 0.00 71 1012.3
20240613222604 89 199 0.9 2.6 0.00 0.00 0.00 71 1012.3
20240613222103 89 199 0.0 1.7 0.00 0.00 0.00 71 1012.3
20240613221603 89 196 0.0 2.6 0.00 0.00 0.00 71 1012.4
20240613221104 90 190 0.0 1.7 0.00 0.00 0.00 71 1012.4
20240613220604 90 180 0.0 1.7 0.00 0.00 0.00 71 1012.4
20240613220104 90 167 0.0 1.7 0.00 0.00 0.00 71 1012.5
20240613215604 90 183 0.0 1.7 0.00 0.00 0.00 70 1012.5
20240613215103 90 183 0.0 2.6 0.00 0.00 0.00 70 1012.5
20240613214604 91 186 0.0 1.7 0.00 0.00 0.00 69 1012.5
20240613214104 91 189 0.0 1.7 0.00 0.00 0.00 69 1012.5
20240613213603 91 160 0.0 1.7 0.00 0.00 0.00 69 1012.4
20240613213104 91 144 0.0 1.7 0.00 0.00 0.00 69 1012.5
20240613212603 92 135 0.0 2.6 0.00 0.00 0.00 70 1012.5
20240613212103 91 127 0.0 2.6 0.00 0.00 0.00 71 1012.5
20240613211604 91 159 0.0 0.9 0.00 0.00 0.00 71 1012.5
20240613211104 90 159 0.0 0.9 0.00 0.00 0.00 71 1012.5
20240613210604 90 163 0.0 0.0 0.00 0.00 0.00 71 1012.6
20240613210104 90 162 0.0 1.7 0.00 0.00 0.00 71 1012.7
20240613205604 90 163 0.0 0.9 0.00 0.00 0.00 72 1012.7
20240613205103 90 158 0.0 2.6 0.00 0.00 0.00 71 1012.7
20240613204604 90 100 0.0 1.7 0.00 0.00 0.00 71 1012.7
20240613204103 90 99 0.0 1.7 0.00 0.00 0.00 70 1012.7
20240613203603 90 99 0.0 1.7 0.00 0.00 0.00 70 1012.7
20240613203103 90 99 0.0 0.9 0.00 0.00 0.00 70 1012.7
20240613202604 91 99 0.9 2.6 0.00 0.00 0.00 69 1012.9
20240613202104 91 78 0.0 1.7 0.00 0.00 0.00 69 1012.9
20240613201103 92 143 0.0 1.7 0.00 0.00 0.00 69 1012.9
20240613200603 91 170 0.0 2.6 0.00 0.00 0.00 70 1013.0
20240613200103 91 169 0.9 4.3 0.00 0.00 0.00 70 1013.1
20240613195103 92 98 0.0 1.7 0.00 0.00 0.00 70 1013.1
20240613194603 92 98 0.0 1.7 0.00 0.00 0.00 68 1013.1
20240613194103 92 98 0.0 0.9 0.00 0.00 0.00 66 1013.1
20240613193604 92 97 0.0 1.7 0.00 0.00 0.00 66 1013.1
20240613193103 92 96 0.0 1.7 0.00 0.00 0.00 66 1013.1
20240613192603 91 94 0.0 1.7 0.00 0.00 0.00 67 1013.2
20240613191603 91 93 0.0 0.9 0.00 0.00 0.00 68 1013.4
20240613191104 91 93 0.0 1.7 0.00 0.00 0.00 68 1013.4
20240613190604 91 93 0.0 1.7 0.00 0.00 0.00 67 1013.5
20240613190105 92 161 0.0 1.7 0.00 0.00 0.00 66 1013.5
20240613185603 92 161 0.0 1.7 0.00 0.00 0.00 67 1013.6
20240613185103 91 217 0.9 1.7 0.00 0.00 0.00 66 1013.5
20240613184604 91 214 0.0 1.7 0.00 0.00 0.00 66 1013.6
20240613184104 91 216 0.0 1.7 0.00 0.00 0.00 66 1013.7
20240613183603 91 217 0.0 0.9 0.00 0.00 0.00 66 1013.7
20240613183103 91 217 0.0 1.7 0.00 0.00 0.00 65 1013.7
20240613182603 91 198 0.0 0.9 0.00 0.00 0.00 66 1013.8
20240613182104 91 113 0.0 2.6 0.00 0.00 0.00 66 1013.9
20240613181604 91 119 0.0 0.9 0.00 0.00 0.00 65 1014.0
20240613181102 92 117 0.0 1.7 0.00 0.00 0.00 65 1014.0
20240613180602 92 136 0.0 2.6 0.00 0.00 0.00 65 1014.1
20240613180102 92 28 0.9 2.6 0.00 0.00 0.00 65 1014.0
20240613175602 92 119 0.0 1.7 0.00 0.00 0.00 63 1014.0
20240613175102 92 121 0.0 1.7 0.00 0.00 0.00 65 1014.2
20240613174602 92 123 0.0 2.6 0.00 0.00 0.00 64 1014.2
20240613174102 92 196 0.0 1.7 0.00 0.00 0.00 67 1014.2
20240613173602 92 183 0.9 2.6 0.00 0.00 0.00 66 1014.2
20240613173102 92 162 0.0 5.2 0.00 0.00 0.00 65 1014.2
20240613171602 91 92 0.0 1.7 0.00 0.00 0.00 69 1014.3
20240613171103 91 65 0.0 2.6 0.00 0.00 0.00 67 1014.3
20240613170102 92 156 0.0 1.7 0.00 0.00 0.00 68 1014.4
20240613165602 91 90 0.0 2.6 0.00 0.00 0.00 70 1014.4
20240613165102 91 172 0.0 1.7 0.00 0.00 0.00 68 1014.4
20240613164603 91 33 0.0 2.6 0.00 0.00 0.00 69 1014.3
20240613164102 90 104 0.9 2.6 0.00 0.00 0.00 69 1014.3
20240613163602 90 116 0.0 2.6 0.00 0.00 0.00 70 1014.4
20240613163102 90 92 0.9 2.6 0.00 0.00 0.00 69 1014.4
20240613162602 91 107 0.9 2.6 0.00 0.00 0.00 68 1014.4
20240613161602 91 155 0.0 1.7 0.00 0.00 0.00 69 1014.5
20240613160103 90 98 0.0 2.6 0.00 0.00 0.00 72 1014.4
20240613155602 90 124 0.9 2.6 0.00 0.00 0.00 71 1014.4
20240613155102 89 112 0.0 1.7 0.00 0.00 0.00 71 1014.4
20240613153103 89 104 0.9 2.6 0.00 0.00 0.00 72 1014.4
20240613152102 89 109 0.9 2.6 0.00 0.00 0.00 71 1014.4
20240613151602 89 69 0.0 1.7 0.00 0.00 0.00 73 1014.4
20240613151102 88 72 0.9 1.7 0.00 0.00 0.00 73 1014.4
20240613150602 88 53 0.9 2.6 0.00 0.00 0.00 74 1014.4
20240613150102 87 55 0.0 2.6 0.00 0.00 0.00 75 1014.4
20240613145602 87 104 0.0 2.6 0.00 0.00 0.00 75 1014.4
20240613145102 87 105 0.0 2.6 0.00 0.00 0.00 75 1014.4
20240613144602 87 113 0.9 2.6 0.00 0.00 0.00 75 1014.4
20240613143602 86 122 0.9 2.6 0.00 0.00 0.00 76 1014.4
20240613143103 86 165 0.0 2.6 0.00 0.00 0.00 77 1014.4
20240613142602 85 113 0.0 1.7 0.00 0.00 0.00 78 1014.4
20240613142102 85 72 0.0 2.6 0.00 0.00 0.00 78 1014.4
20240613141602 84 107 0.9 2.6 0.00 0.00 0.00 78 1014.5
20240613140603 83 36 0.0 1.7 0.00 0.00 0.00 81 1014.4
20240613135602 82 27 0.9 2.6 0.00 0.00 0.00 83 1014.3
20240613135103 82 27 0.0 2.6 0.00 0.00 0.00 84 1014.3
20240613134602 81 30 0.0 0.9 0.00 0.00 0.00 84 1014.2
20240613134102 81 30 0.0 1.7 0.00 0.00 0.00 84 1014.2
20240613133102 80 30 0.0 1.7 0.00 0.00 0.00 84 1014.1
20240613132602 80 160 0.0 2.6 0.00 0.00 0.00 85 1014.1
20240613132102 80 224 0.9 1.7 0.00 0.00 0.00 85 1013.9